Regional Weather Roundup
Issued by NWS

Home | Current Version | Previous Version | Text Only | Print | Product List | Glossary Off
Versions: 1 2 3 4 5 6 7 8 9 10 11 12 13 14 15 16 17 18 19 20 21 22 23 24 25 26 27 28 29 30 31 32 33 34 35 36 37 38 39 40 41 42 43 44 45 46 47 48 49 50

000
ASUS45 KCYS 051410
RWRWY

WYOMING REGIONAL WEATHER ROUNDUP
NATIONAL WEATHER SERVICE CHEYENNE WY
800 AM MDT SUN JUL 05 2015

NOTE:  "FAIR" INDICATES FEW OR NO CLOUDS BELOW 12,000 FEET
WITH NO SIGNIFICANT WEATHER AND/OR OBSTRUCTIONS TO VISIBILITY.

WYZ001-051500-
YELLOWSTONE NATIONAL PARK

CITY           SKY/WX    TMP DP  RH WIND       PRES   REMARKS
LK YELLOWSTONE   N/A     58  48  69 CALM      30.20R
W YELLOWSTONE  NOT AVBL

$$
WYZ002>013-054>058-071-098>099-051500-
NORTHERN WYOMING

CITY           SKY/WX    TMP DP  RH WIND       PRES   REMARKS
JACKSON        FAIR      64  50  59 CALM      30.10R
CODY           CLOUDY    61  52  72 NW20G25   30.06R
GREYBULL       FAIR      72  56  57 NW26      29.88R
WORLAND        FAIR      72  56  57 NW18      29.91R
SHERIDAN       CLOUDY    63  55  75 NW23G32   29.99R
BUFFALO        CLOUDY    62  58  86 N36G47    29.96R
GILLETTE       FAIR      75  57  53 NW14      29.89R
HULETT         FAIR      77  59  53 CALM      29.89R
NEWCASTLE      FAIR      79  54  41 MISG      29.86S

$$
WYZ014>020-022>026-101>103-051500-
CENTRAL WYOMING

CITY           SKY/WX    TMP DP  RH WIND       PRES   REMARKS
BIG PINEY      CLOUDY    62  42  47 SW3       30.17R
PINEDALE       CLOUDY    55  45  67 CALM      30.17R
DUBOIS         FAIR      59  36  41 MISG      30.10F
LANDER         FAIR      67  45  45 SW5       29.97R
RIVERTON       FAIR      71  43  36 W7        29.96S
CASPER         FAIR      75  48  38 SW18G28   29.95R
DOUGLAS        FAIR      72  58  61 SE5       29.92S

$$
WYZ021-027>030-104>119-051500-
SOUTHERN WYOMING

CITY           SKY/WX    TMP DP  RH WIND       PRES   REMARKS
EVANSTON       LGT RAIN  59  54  83 NW7       30.21R
KEMMERER       DRIZZLE   61  52  72 SW3       30.21R
FORT BRIDGER   LGT RAIN  64  54  68 W16       30.22R
ROCK SPRINGS   CLOUDY    68  49  50 SW12      30.12F
DIXON          CLOUDY    67  52  59 S13G18    30.21R
RAWLINS        FAIR      70  51  51 W13G24    30.13R
SARATOGA       PTSUNNY   72  50  46 E6        30.18R
LARAMIE        FAIR      68  46  45 SW14      30.15S
CHEYENNE       FAIR      75  48  38 W17G23    30.03S
TORRINGTON     FAIR      68  58  70 W3        29.88R
PINE BLUFFS    FAIR      72  59  64 SW3       29.98R

$$



USA.gov is the U.S. government's official web portal to all federal, state and local government web resources and services.